Tracking 19242 objects as of 15-Aug-2018
HD Live streaming from Space Station
objects crossing your sky now

OPS 1264 (DMSP 4A F4)

Track OPS 1264 (DMSP 4A F4) now!
10-day predictions
OPS 1264 (DMSP 4A F4) is classified as:


NORAD ID: 2980
Int'l Code: 1967-096A
Perigee: 632.2 km
Apogee: 773.1 km
Inclination: 99.2 °
Period: 98.7 minutes
Semi major axis: 7073 km
RCS: 0.6338 m2 (medium)
Launch date: October 11, 1967
Source: United States (US)
Launch site: AIR FORCE WESTERN TEST RANGE (AFWTR)
aabbcc
Your satellite tracking list
Your tracking list is empty




NASA's NSSDC Master Catalog

Two Line Element Set (TLE):
1 02980U 67096A   18226.28935203  .00000007  00000-0  13719-4 0  9990
2 02980  99.1818 304.3785 0099560 149.5846 211.1179 14.59269843690089
Source of the keplerian elements: AFSPC